COSMOS 1083

Satellite information

Favourite Embed

Satellite Type and Status

PAYLOADIN ORBIT

Key statistics

Satellite COSMOS 1083 at a glance.

Uptime

17082

Days in orbit

Revolutions

≈ 12.5

Per day

Orbit

LEO

Low Earth Orbit

Inclination

74.0

Latest

Satellite identification and parameters

Extended collection of information and parameters for COSMOS 1083.

Object identification

Identified? True

Debris? False

Object name: COSMOS 1083

International designator: 1979-024C

Object number (NORAD): 11298

Object ID (CCSDS): 11298

Country: COMMONWEALTH OF INDEPENDENT STATES (CIS)

Current information (Y/N): Y

RCS size: MEDIUM

Orbital parameters

Period: 114.96 minutes

Inclination: 74.0336 deg

SMA: 7831.721 km

Apoapsis: 1465.378 km

Periapsis: 1441.794 km

RAAN: 106.2164 deg

Eccentricy: 0.0015057

Argument of periapsis: 217.7123 deg

Mean anomaly: 207.4865 deg

Mean motion: 12.52613055 rev/day

Mean motion (dot): -0.00000031 rev/day2

B* drag term: -0.00009257 1/REarth

Two-line elements (TLE)

Creation date: Dec. 19, 2025, 9:26 p.m.

Reference frame: TEME

Reference center: EARTH

Epoch: Dec. 19, 2025, 10:30 a.m. UTC

TLE line 0: 0 COSMOS 1083

TLE line 1: 1 11298U 79024C 25353.43788264 -.00000031 00000-0 -92570-4 0 9996

TLE line 2: 2 11298 74.0336 106.2164 0015057 217.7123 207.4865 12.52613055138371

Live tracking on map

Real-time ground track for satellite COSMOS 1083.

In-orbit conjunctions

There are no conjunctions computed for COSMOS 1083, at the moment. Check back to stay up to date, as we update our databases every day.

Go to all conjunctions

Associated space launch

Military communications satellites

COSMOS 1083 was lifted into orbit during the mission ‘Kosmos-3M | Strela-1M 169-176’, on board a Kosmos-3M space rocket.

The launch took place on March 15, 1979, 2:58 a.m. from 132/2.

For more information about the launch, click the button.

Launch to space Kosmos-3M | Strela-1M 169-176
Kosmos-3M | Strela-1M 169-176

Agency: N/A

Status: Launch Successful

Launch date: March 15, 1979, 2:58 a.m. UTC

Rocket: Kosmos-3M

Launch pad: 132/2

Location: Plesetsk Cosmodrome, Russian Federation

...

Latest news about this satellite

There are no fresh news available about this satellite. Check back as we update our databases every day.


Newsletter sign-up

Weekly statistics, charts and insights to help you stay on top of the space industry.